STARLINK-1402, 45685

Orbit data source: Space-Track

STARLINK-1402, 45685 is a payload satellite owned by SpaceX/Seattle (US) in LEO that was launched on Thu, 04 Jun 2020 UTC via an FALCON 9 launch vehicle from the Air Force Eastern Test Range (AFETR). Payload-class satellites include a variety of spacecraft equipped with specific instruments for various scientific and technological missions. These include communications satellites like Starlink; space stations such as the ISS; scientific satellites like the Hubble; Earth observation satellites from companies like Planet Labs, Umbra, and HawkEye 360; GPS; miniature CubeSats for education and research; and military/defense satellites.

Loading next visibility...
Identifier
45685, 2020-035AE
Orbit
LEO
Last TLE update
17 hours ago
Origin
Manufacturer
SpaceX/Seattle
Mission
Operational Commercial Communications
Bus & Motor
STARLINK, Unknown motor
Mass
260 kg wet, ~248 kg dry
Launch date (UTC)
2020-06-04 (5 years ago)
Launch vehicle
FALCON 9
Launch site
Air Force Eastern Test Range (AFETR)
Object type
Payload
Rocket body
Debris
Shape & HBR
Box + 1 Pan, 8.86 m
Radar Cross Section
13.562 m², Large (>1 m²)

Expand to show TLE details & history

TLE from 17 hours ago
0 STARLINK-1402
1 45685U 20035AE  25191.77316317  .00000106  00000-0  26036-4 0  9999
2 45685  53.0561  57.0403 0001516  96.2128 263.9034 15.06398567282492
Epoch: 2025-07-10T18:33Z
TLE epoch observation values (Epoch: 2025-07-10T18:33:21.297Z)
Latitude
-0.00002°
Longitude
-150.23309°
Altitude
548.207 km
Speed
7.589 km/s
True Right ascension
03h 48m 09s
True Declination
0° 00' 00"
Sunlit
Object was in daylight at epoch
Visualization orbit readout
Latitude
-31.53883°
Longitude
179.20003°
Altitude
557.738 km
Speed
7.582 km/s
Apparent Right ascension
05h 21m 39s
Apparent Declination
-72° 29' 10"
Sunlit
Object is in daylight
Visualization observer readout
Local Sidereal Time
00:11:36
Azimuth
159.193° S
Elevation
-34.196°
Doppler factor
1
Orbital elements
Apogee altitude
548.536 km
Perigee altitude
546.436 km
Semi-major axis
6,925.623 km
Eccentricity
0.00015
Inclination
53.0561°
RAAN
57.0403°
Arg. of periapsis
96.2128°
True anomaly
Unknown
Mean anomaly
263.9034°
Eccentric anomaly
Unknown
Mean motion
3.76578 °/min
Orbital period
95.6 mins
BSTAR
0.000026036
Loading maneuver chart data...
Loading SW <> Apogee altitude chart data...

STARLINK-1402 Visibility forecast

Observer location: undefined°, undefined°

Span
Click to sort rows by Start time (UTC) header in descending order
Start Az.
Max El. time (UTC)
Max El. Az.
Max El.
End time (UTC)
End Az.
6 mins2025-07-11 17:00:29.217Z194.184° SSW2025-07-11 17:03:29.217Z129.57° SE30.802°2025-07-11 17:06:29.217Z69.641° E
6 mins2025-07-11 18:40:29.217Z273.378° WNW2025-07-11 18:42:29.217Z314.838° NW29.148°2025-07-11 18:46:29.217Z35.506° NE
6 mins2025-07-11 23:42:29.217Z333.277° NNW2025-07-11 23:44:29.217Z21.396° NNE32.748°2025-07-11 23:48:29.217Z102.91° ESE
5 mins2025-07-12 01:22:29.217Z269.502° W2025-07-12 01:24:29.217Z219.762° SW26.087°2025-07-12 01:27:29.217Z169.664° S
|